This demonstration page uses our WeatherBlox Daily Observations layout. Learn more.

Left ArrowRight Arrow

30.21309, -93.2044

Hourly Observations for July 7, 2019

Temp ( °F °C ) Dew Point ( °F °C ) Humidity (%) Winds ( mph kmh ) Pressure ( in mb ) Visibility ( mi km ) Precip ( " mm )
12:15 am 00:15 Clear 82 28 76 24.3 80 80 WSW 5 7 30.04 1017 10 16 0.00 0.00
12:35 am 00:35 Clear 83 28.1 76 24.3 80 80 WSW 6 9 30.04 1017 10 16 0.00 0.00
12:55 am 00:55 Clear 82 28 76 24.2 80 80 N 8 13 30.05 1018 7 11 0.00 0.00
1:15 am 01:15 Clear 80 26.6 75 24.1 86 86 N 8 13 30.05 1018 10 16 0.00 0.00
1:35 am 01:35 Clear 82 28 76 24.5 81 81 WSW 5 7 30.04 1017 10 16 0.00 0.00
1:55 am 01:55 Clear 82 28 76 24.5 81 81 SSW 3 6 30.03 1017 10 16 0.00 0.00
2:15 am 02:15 Clear 82 27.6 76 24.6 84 84 Calm 30.03 1017 10 16 0.00 0.00
2:35 am 02:35 Clear 81 27.3 76 24.6 85 85 SW 3 6 30.03 1017 10 16 0.00 0.00
2:55 am 02:55 Clear 81 27 76 24.6 87 87 SW 3 6 30.02 1017 10 16 0.00 0.00
3:15 am 03:15 Clear 80 26.7 76 24.6 88 88 SW 3 6 30.02 1017 10 16 0.00 0.00
3:35 am 03:35 Clear 80 26.7 76 24.6 88 88 Calm 30.02 1017 10 16 0.00 0.00
3:55 am 03:55 Clear 77 25 75 24.1 95 95 N 3 6 30.02 1017 10 16 0.00 0.00
4:15 am 04:15 Clear 79 26.3 77 24.9 92 92 W 3 6 30.02 1017 10 16 0.00 0.00
4:35 am 04:35 Clear 78 25.5 76 24.5 94 94 N 8 13 30.02 1017 10 16 0.00 0.00
4:55 am 04:55 Clear 79 26.3 76 24.7 91 91 N 7 11 30.03 1017 10 16 0.00 0.00
5:15 am 05:15 Clear 79 26 76 24.7 93 93 N 7 11 30.03 1017 10 16 0.00 0.00
5:35 am 05:35 Clear 78 25.8 76 24.7 94 94 N 7 11 30.04 1017 10 16 0.00 0.00
6:00 am 06:00 Mostly Clear 79 26 77 25 94 94 VRB 7 11 30.05 1018 10 16 0.00 0.00
6:50 am 06:50 Mostly Sunny 79 26 77 25 94 94 VRB 7 11 30.05 1018 10 16 0.00 0.00
7:50 am 07:50 Mostly Sunny 81 27 77 25 89 89 VRB 5 7 30.07 1018 10 16 0.00 0.00
8:45 am 08:45 Mostly Sunny 81 27 77 25 89 89 VRB 5 7 30.07 1018 10 16 0.00 0.00
9:45 am 09:45 Mostly Sunny 86 30 77 25 75 75 VRB 7 11 30.06 1018 10 16 0.00 0.00
10:45 am 10:45 Mostly Sunny 88 31 77 25 70 70 VRB 7 11 30.06 1018 10 16 0.00 0.00
11:45 am 11:45 Partly Cloudy 90 32 75 24 63 63 VRB 7 11 30.05 1018 10 16 0.00 0.00
12:45 pm 12:45 Partly Cloudy 91 33 75 24 59 59 VRB 3 6 30.04 1017 10 16 0.00 0.00
1:55 pm 13:55 Mostly Cloudy 91 33 73 23 56 56 VRB 5 7 30.02 1017 10 16 0.00 0.00
2:50 pm 14:50 Partly Cloudy 93 34 73 23 53 53 S 6 9 30.00 1016 10 16 0.00 0.00
3:55 pm 15:55 Partly Cloudy 95 35 75 24 53 53 SSE 7 11 29.99 1016 10 16 0.00 0.00
4:50 pm 16:50 Partly Cloudy 93 34 77 25 59 59 S 7 11 29.98 1015 10 16 0.00 0.00
5:50 pm 17:50 Partly Cloudy with Nearby Thunderstorms 91 33 75 24 59 59 SW 13 20 29.97 1015 10 16 0.00 0.00
6:50 pm 18:50 Partly Cloudy 90 32 73 23 59 59 SSW 7 11 29.96 1015 10 16 0.00 0.00
7:50 pm 19:50 Mostly Sunny 88 31 73 23 62 62 S 8 13 29.96 1015 10 16 0.00 0.00
8:50 pm 20:50 Mostly Clear 86 30 73 23 66 66 SSW 7 11 29.96 1015 10 16 0.00 0.00
9:50 pm 21:50 Mostly Clear 84 29 75 24 74 74 SW 6 9 29.95 1014 10 16 0.00 0.00
10:15 pm 22:15 Clear 83 28.2 75 23.9 78 78 SSW 5 7 29.95 1014 10 16 0.00 0.00
10:35 pm 22:35 Clear 82 28 75 24 79 79 SSW 6 9 29.96 1015 10 16 0.00 0.00
10:55 pm 22:55 Clear 83 28.1 76 24.2 79 79 SW 5 7 29.97 1015 10 16 0.00 0.00
11:15 pm 23:15 Clear 83 28.1 76 24.2 79 79 SW 5 7 29.97 1015 10 16 0.00 0.00
11:35 pm 23:35 Clear 81 27.4 75 24.1 82 82 ESE 6 9 29.98 1015 10 16 0.00 0.00
11:55 pm 23:55 Clear 82 27.7 76 24.4 82 82 SW 3 6 29.98 1015 10 16 0.00 0.00

Powered by AerisWeather